Time,TemperatureF,DewpointF,PressureIn,WindDirection,WindDirectionDegrees,WindSpeedMPH,WindSpeedGustMPH,Humidity,HourlyPrecipIn,Conditions,Clouds,dailyrainin,SoftwareType,DateUTC
2013-05-04 00:02:00,61.0,46.0,29.12,NW,308,4.0,11.0,57,0.00,,,0.00,,2013-05-04 04:02:00,
2013-05-04 00:13:00,61.0,46.0,29.12,NW,308,4.0,11.0,57,0.00,,,0.00,,2013-05-04 04:13:00,
2013-05-04 00:23:00,61.0,46.0,29.12,NW,315,7.0,13.0,57,0.00,,,0.00,,2013-05-04 04:23:00,
2013-05-04 00:33:00,61.0,46.0,29.12,NW,316,8.0,14.0,57,0.00,,,0.00,,2013-05-04 04:33:00,
2013-05-04 00:42:00,61.0,46.0,29.12,NW,316,8.0,14.0,57,0.00,,,0.00,,2013-05-04 04:42:00,
2013-05-04 00:52:00,61.0,45.0,29.12,NW,320,7.0,13.0,55,0.00,,,0.00,,2013-05-04 04:52:00,
2013-05-04 01:02:00,61.0,44.0,29.12,WNW,298,9.0,15.0,53,0.00,,,0.00,,2013-05-04 05:02:00,
2013-05-04 01:12:00,61.0,44.0,29.12,WNW,298,9.0,15.0,53,0.00,,,0.00,,2013-05-04 05:12:00,
2013-05-04 01:22:00,61.0,43.0,29.12,NW,314,7.0,13.0,52,0.00,,,0.00,,2013-05-04 05:22:00,
2013-05-04 01:32:00,61.0,43.0,29.12,NW,304,6.0,10.0,51,0.00,,,0.00,,2013-05-04 05:32:00,
2013-05-04 01:43:00,61.0,43.0,29.12,NW,304,6.0,10.0,51,0.00,,,0.00,,2013-05-04 05:43:00,
2013-05-04 01:52:00,61.0,43.0,29.12,NW,304,6.0,10.0,51,0.00,,,0.00,,2013-05-04 05:52:00,
2013-05-04 02:01:00,59.0,46.0,29.09,West,261,3.0,4.0,63,0.00,,,0.00,,2013-05-04 06:01:00,
2013-05-04 02:11:00,59.0,46.0,29.09,West,261,3.0,4.0,63,0.00,,,0.00,,2013-05-04 06:11:00,
2013-05-04 02:22:00,59.0,46.0,29.09,North,0,0.0,5.0,62,0.00,,,0.00,,2013-05-04 06:22:00,
2013-05-04 02:32:00,58.0,47.0,29.09,North,0,0.0,0.0,68,0.00,,,0.00,,2013-05-04 06:32:00,
2013-05-04 02:42:00,58.0,47.0,29.09,North,0,0.0,0.0,68,0.00,,,0.00,,2013-05-04 06:42:00,
2013-05-04 02:52:00,57.0,48.0,29.09,North,0,0.0,0.0,71,0.00,,,0.00,,2013-05-04 06:52:00,
2013-05-04 03:01:00,57.0,48.0,29.06,North,0,0.0,3.0,72,0.00,,,0.00,,2013-05-04 07:01:00,
2013-05-04 03:11:00,57.0,48.0,29.06,North,0,0.0,3.0,72,0.00,,,0.00,,2013-05-04 07:11:00,
2013-05-04 03:22:00,57.0,49.0,29.06,North,0,0.0,0.0,75,0.00,,,0.00,,2013-05-04 07:22:00,
2013-05-04 03:32:00,57.0,50.0,29.06,North,0,0.0,0.0,76,0.00,,,0.00,,2013-05-04 07:32:00,
2013-05-04 03:42:00,57.0,50.0,29.06,North,0,0.0,0.0,76,0.00,,,0.00,,2013-05-04 07:42:00,
2013-05-04 03:52:00,57.0,50.0,29.06,North,0,0.0,0.0,77,0.00,,,0.00,,2013-05-04 07:52:00,
2013-05-04 04:02:00,56.0,50.0,29.06,North,0,0.0,0.0,80,0.00,,,0.00,,2013-05-04 08:02:00,
2013-05-04 04:11:00,56.0,50.0,29.06,North,0,0.0,0.0,80,0.00,,,0.00,,2013-05-04 08:11:00,
2013-05-04 04:21:00,56.0,50.0,29.06,North,0,0.0,4.0,79,0.00,,,0.00,,2013-05-04 08:21:00,
2013-05-04 04:32:00,58.0,46.0,29.06,NW,324,7.0,11.0,65,0.00,,,0.00,,2013-05-04 08:32:00,
2013-05-04 04:42:00,58.0,46.0,29.06,NW,324,7.0,11.0,65,0.00,,,0.00,,2013-05-04 08:42:00,
2013-05-04 04:52:00,60.0,45.0,29.06,NW,313,6.0,13.0,57,0.00,,,0.00,,2013-05-04 08:52:00,
2013-05-04 05:02:00,60.0,43.0,29.06,NW,316,10.0,16.0,54,0.00,,,0.00,,2013-05-04 09:02:00,
2013-05-04 05:11:00,60.0,43.0,29.06,NW,316,10.0,16.0,54,0.00,,,0.00,,2013-05-04 09:11:00,
2013-05-04 05:22:00,59.0,42.0,29.06,NNW,336,5.0,10.0,54,0.00,,,0.00,,2013-05-04 09:22:00,
2013-05-04 05:32:00,59.0,43.0,29.06,NW,310,5.0,10.0,56,0.00,,,0.00,,2013-05-04 09:32:00,
2013-05-04 05:42:00,59.0,43.0,29.06,NW,310,5.0,10.0,56,0.00,,,0.00,,2013-05-04 09:42:00,
2013-05-04 05:53:00,59.0,42.0,29.06,WNW,296,7.0,16.0,53,0.00,,,0.00,,2013-05-04 09:53:00,
2013-05-04 06:03:00,58.0,41.0,29.06,WNW,299,7.0,13.0,53,0.00,,,0.00,,2013-05-04 10:03:00,
2013-05-04 06:12:00,58.0,41.0,29.06,WNW,299,7.0,13.0,53,0.00,,,0.00,,2013-05-04 10:12:00,
2013-05-04 06:23:00,58.0,42.0,29.06,WNW,288,7.0,13.0,56,0.00,,,0.00,,2013-05-04 10:23:00,
2013-05-04 06:33:00,57.0,43.0,29.06,West,280,4.0,11.0,60,0.00,,,0.00,,2013-05-04 10:33:00,
2013-05-04 06:42:00,57.0,43.0,29.06,West,280,4.0,11.0,60,0.00,,,0.00,,2013-05-04 10:42:00,
2013-05-04 06:53:00,57.0,43.0,29.06,West,280,4.0,11.0,60,0.00,,,0.00,,2013-05-04 10:53:00,
2013-05-04 07:02:00,53.0,48.0,29.06,North,0,0.0,0.0,84,0.00,,,0.00,,2013-05-04 11:02:00,
2013-05-04 07:11:00,53.0,48.0,29.06,North,0,0.0,0.0,84,0.00,,,0.00,,2013-05-04 11:11:00,
2013-05-04 07:21:00,52.0,49.0,29.06,North,0,0.0,0.0,88,0.00,,,0.00,,2013-05-04 11:21:00,
2013-05-04 07:25:00,51.0,50.0,29.09,North,0,0.0,0.0,95,0.04,,,0.04,,2013-05-04 11:25:00,
2013-05-04 07:32:00,52.0,49.0,29.09,North,0,0.0,0.0,89,0.00,,,0.00,,2013-05-04 11:32:00,
2013-05-04 07:45:00,52.0,49.0,29.09,North,0,0.0,0.0,89,0.00,,,0.00,,2013-05-04 11:45:00,
2013-05-04 08:09:00,51.0,50.0,29.09,North,0,0.0,0.0,95,0.04,,,0.04,,2013-05-04 12:09:00,
2013-05-04 08:14:00,51.0,50.0,29.09,North,0,0.0,0.0,95,0.04,,,0.04,,2013-05-04 12:14:00,
2013-05-04 08:42:00,50.0,48.0,29.09,North,0,0.0,4.0,94,0.16,,,0.20,,2013-05-04 12:42:00,
2013-05-04 08:52:00,50.0,48.0,29.09,North,0,0.0,0.0,94,0.20,,,0.24,,2013-05-04 12:52:00,
2013-05-04 09:01:00,50.0,49.0,29.09,North,0,0.0,0.0,96,0.16,,,0.24,,2013-05-04 13:01:00,
2013-05-04 09:22:00,51.0,50.0,29.09,North,0,0.0,0.0,98,0.08,,,0.24,,2013-05-04 13:22:00,
2013-05-04 09:32:00,51.0,50.0,29.09,North,0,0.0,0.0,98,0.08,,,0.24,,2013-05-04 13:32:00,
2013-05-04 09:42:00,51.0,50.0,29.09,North,0,0.0,0.0,98,0.08,,,0.24,,2013-05-04 13:42:00,
2013-05-04 09:53:00,51.0,50.0,29.06,North,0,0.0,0.0,98,0.00,,,0.24,,2013-05-04 13:53:00,
2013-05-04 10:02:00,53.0,50.0,29.06,SW,235,3.0,9.0,90,0.00,,,0.24,,2013-05-04 14:02:00,
2013-05-04 10:11:00,53.0,50.0,29.06,SW,235,3.0,9.0,90,0.00,,,0.24,,2013-05-04 14:11:00,
2013-05-04 10:21:00,53.0,50.0,29.06,SW,235,3.0,9.0,90,0.00,,,0.24,,2013-05-04 14:21:00,
2013-05-04 10:32:00,53.0,49.0,29.06,North,0,0.0,7.0,85,0.00,,,0.24,,2013-05-04 14:32:00,
2013-05-04 10:42:00,53.0,49.0,29.06,North,0,0.0,7.0,85,0.00,,,0.24,,2013-05-04 14:42:00,
2013-05-04 10:52:00,54.0,50.0,29.06,North,0,0.0,10.0,87,0.00,,,0.24,,2013-05-04 14:52:00,
2013-05-04 11:02:00,54.0,51.0,29.06,North,0,0.0,5.0,89,0.00,,,0.24,,2013-05-04 15:02:00,
2013-05-04 11:12:00,54.0,51.0,29.06,North,0,0.0,5.0,89,0.00,,,0.24,,2013-05-04 15:12:00,
2013-05-04 11:22:00,54.0,52.0,29.09,North,0,0.0,4.0,93,0.00,,,0.24,,2013-05-04 15:22:00,
2013-05-04 11:33:00,54.0,52.0,29.09,North,0,0.0,4.0,93,0.00,,,0.24,,2013-05-04 15:33:00,
2013-05-04 11:43:00,54.0,52.0,29.09,North,0,0.0,4.0,93,0.00,,,0.24,,2013-05-04 15:43:00,
2013-05-04 11:53:00,53.0,52.0,29.06,North,0,0.0,0.0,95,0.00,,,0.24,,2013-05-04 15:53:00,
2013-05-04 12:03:00,54.0,53.0,29.06,North,0,0.0,0.0,95,0.00,,,0.24,,2013-05-04 16:03:00,
2013-05-04 12:12:00,54.0,53.0,29.06,North,0,0.0,0.0,95,0.00,,,0.24,,2013-05-04 16:12:00,
2013-05-04 12:22:00,55.0,53.0,29.09,North,0,0.0,0.0,94,0.00,,,0.24,,2013-05-04 16:22:00,
2013-05-04 12:33:00,55.0,53.0,29.09,North,0,0.0,0.0,94,0.00,,,0.24,,2013-05-04 16:33:00,
2013-05-04 12:42:00,55.0,53.0,29.09,North,0,0.0,0.0,94,0.00,,,0.24,,2013-05-04 16:42:00,
2013-05-04 12:52:00,54.0,50.0,29.09,North,0,0.0,8.0,85,0.04,,,0.28,,2013-05-04 16:52:00,
2013-05-04 13:02:00,54.0,50.0,29.09,North,0,0.0,12.0,85,0.08,,,0.31,,2013-05-04 17:02:00,
2013-05-04 13:12:00,54.0,50.0,29.09,North,0,0.0,12.0,85,0.08,,,0.31,,2013-05-04 17:12:00,
2013-05-04 13:22:00,53.0,50.0,29.06,North,0,0.0,4.0,91,0.12,,,0.35,,2013-05-04 17:22:00,
2013-05-04 13:32:00,53.0,52.0,29.06,North,0,0.0,0.0,96,0.20,,,0.43,,2013-05-04 17:32:00,
2013-05-04 13:42:00,53.0,52.0,29.06,North,0,0.0,0.0,96,0.20,,,0.43,,2013-05-04 17:42:00,
2013-05-04 13:52:00,54.0,53.0,29.06,North,0,0.0,0.0,97,0.20,,,0.47,,2013-05-04 17:52:00,
2013-05-04 14:01:00,54.0,53.0,29.06,North,0,0.0,0.0,97,0.20,,,0.47,,2013-05-04 18:01:00,
2013-05-04 14:12:00,54.0,53.0,29.06,North,0,0.0,0.0,97,0.20,,,0.47,,2013-05-04 18:12:00,
2013-05-04 14:22:00,54.0,53.0,29.06,North,0,0.0,0.0,97,0.20,,,0.47,,2013-05-04 18:22:00,
2013-05-04 14:32:00,54.0,53.0,29.06,North,0,0.0,0.0,97,0.20,,,0.47,,2013-05-04 18:32:00,
2013-05-04 15:02:00,54.0,53.0,29.06,ESE,115,3.0,4.0,97,0.12,,,0.63,,2013-05-04 19:02:00,
2013-05-04 15:11:00,54.0,53.0,29.06,ESE,115,3.0,4.0,97,0.12,,,0.63,,2013-05-04 19:11:00,
2013-05-04 15:21:00,55.0,54.0,29.06,North,0,0.0,4.0,97,0.12,,,0.63,,2013-05-04 19:21:00,
2013-05-04 15:32:00,54.0,53.0,29.09,ENE,75,4.0,6.0,96,0.12,,,0.71,,2013-05-04 19:32:00,
2013-05-04 15:42:00,54.0,53.0,29.09,ENE,75,4.0,6.0,96,0.12,,,0.71,,2013-05-04 19:42:00,
2013-05-04 15:52:00,53.0,52.0,29.09,ENE,77,6.0,7.0,95,0.16,,,0.79,,2013-05-04 19:52:00,
2013-05-04 16:02:00,53.0,52.0,29.12,North,0,0.0,4.0,96,0.20,,,0.83,,2013-05-04 20:02:00,
2013-05-04 16:11:00,53.0,52.0,29.12,North,0,0.0,4.0,96,0.20,,,0.83,,2013-05-04 20:11:00,
2013-05-04 16:22:00,53.0,52.0,29.12,North,0,0.0,4.0,96,0.20,,,0.83,,2013-05-04 20:22:00,
2013-05-04 16:32:00,53.0,52.0,29.09,North,0,0.0,0.0,97,0.20,,,0.91,,2013-05-04 20:32:00,
2013-05-04 16:42:00,53.0,52.0,29.09,North,0,0.0,0.0,97,0.20,,,0.91,,2013-05-04 20:42:00,
2013-05-04 16:52:00,53.0,52.0,29.09,North,0,0.0,0.0,98,0.16,,,0.91,,2013-05-04 20:52:00,
2013-05-04 17:02:00,53.0,52.0,29.09,North,0,0.0,0.0,98,0.16,,,0.91,,2013-05-04 21:02:00,
2013-05-04 17:12:00,53.0,52.0,29.09,North,0,0.0,0.0,98,0.16,,,0.91,,2013-05-04 21:12:00,
2013-05-04 17:22:00,53.0,52.0,29.09,North,0,0.0,0.0,98,0.16,,,0.91,,2013-05-04 21:22:00,
2013-05-04 17:33:00,52.0,51.0,29.06,NE,55,3.0,4.0,98,0.12,,,1.02,,2013-05-04 21:33:00,
2013-05-04 17:43:00,52.0,51.0,29.06,NE,55,3.0,4.0,98,0.12,,,1.02,,2013-05-04 21:43:00,
2013-05-04 17:53:00,52.0,51.0,29.06,NE,55,3.0,4.0,98,0.12,,,1.02,,2013-05-04 21:53:00,
2013-05-04 18:03:00,52.0,51.0,29.06,NE,55,3.0,4.0,98,0.12,,,1.02,,2013-05-04 22:03:00,
2013-05-04 18:12:00,52.0,51.0,29.06,NE,55,3.0,4.0,98,0.12,,,1.02,,2013-05-04 22:12:00,
2013-05-04 18:22:00,52.0,51.0,29.09,North,0,0.0,0.0,98,0.24,,,1.18,,2013-05-04 22:22:00,
2013-05-04 18:33:00,51.0,50.0,29.06,North,0,0.0,0.0,98,0.31,,,1.30,,2013-05-04 22:33:00,
2013-05-04 18:42:00,51.0,50.0,29.06,North,0,0.0,0.0,98,0.31,,,1.30,,2013-05-04 22:42:00,
2013-05-04 18:52:00,51.0,50.0,29.06,North,0,0.0,5.0,98,0.31,,,1.34,,2013-05-04 22:52:00,
2013-05-04 19:02:00,51.0,50.0,29.09,North,0,0.0,0.0,98,0.24,,,1.38,,2013-05-04 23:02:00,
2013-05-04 19:12:00,51.0,50.0,29.09,North,0,0.0,0.0,98,0.24,,,1.38,,2013-05-04 23:12:00,
2013-05-04 19:22:00,52.0,51.0,29.06,North,0,0.0,0.0,98,0.24,,,1.42,,2013-05-04 23:22:00,
2013-05-04 19:32:00,52.0,51.0,29.06,North,0,0.0,0.0,98,0.12,,,1.42,,2013-05-04 23:32:00,
2013-05-04 19:42:00,52.0,51.0,29.06,North,0,0.0,0.0,98,0.12,,,1.42,,2013-05-04 23:42:00,
2013-05-04 19:52:00,51.0,50.0,29.06,North,0,0.0,0.0,98,0.12,,,1.46,,2013-05-04 23:52:00,
2013-05-04 20:02:00,51.0,50.0,29.06,North,0,0.0,0.0,98,0.12,,,1.46,,2013-05-05 00:02:00,
2013-05-04 20:11:00,51.0,50.0,29.06,North,0,0.0,0.0,98,0.12,,,1.46,,2013-05-05 00:11:00,
2013-05-04 20:22:00,51.0,50.0,29.06,North,0,0.0,0.0,98,0.08,,,1.50,,2013-05-05 00:22:00,
2013-05-04 20:32:00,51.0,50.0,29.06,North,0,0.0,0.0,98,0.04,,,1.50,,2013-05-05 00:32:00,
2013-05-04 20:42:00,51.0,50.0,29.06,North,0,0.0,0.0,98,0.04,,,1.50,,2013-05-05 00:42:00,
2013-05-04 20:52:00,51.0,50.0,29.06,North,0,0.0,0.0,98,0.04,,,1.50,,2013-05-05 00:52:00,
2013-05-04 21:01:00,51.0,50.0,29.06,North,0,0.0,0.0,98,0.04,,,1.54,,2013-05-05 01:01:00,
2013-05-04 21:11:00,51.0,50.0,29.06,North,0,0.0,0.0,98,0.04,,,1.54,,2013-05-05 01:11:00,
2013-05-04 21:22:00,52.0,51.0,29.06,North,0,0.0,0.0,98,0.08,,,1.57,,2013-05-05 01:22:00,
2013-05-04 21:32:00,52.0,51.0,29.06,North,0,0.0,0.0,98,0.08,,,1.57,,2013-05-05 01:32:00,
2013-05-04 21:42:00,52.0,51.0,29.06,North,0,0.0,0.0,98,0.08,,,1.57,,2013-05-05 01:42:00,
2013-05-04 21:52:00,52.0,51.0,29.03,North,0,0.0,0.0,98,0.08,,,1.57,,2013-05-05 01:52:00,
2013-05-04 22:02:00,52.0,51.0,29.06,North,0,0.0,0.0,98,0.08,,,1.61,,2013-05-05 02:02:00,
2013-05-04 22:12:00,52.0,51.0,29.06,North,0,0.0,0.0,98,0.08,,,1.61,,2013-05-05 02:12:00,
2013-05-04 22:22:00,52.0,51.0,29.06,North,0,0.0,0.0,98,0.08,,,1.65,,2013-05-05 02:22:00,
2013-05-04 22:32:00,52.0,51.0,29.06,North,0,0.0,0.0,98,0.08,,,1.65,,2013-05-05 02:32:00,
2013-05-04 22:42:00,52.0,51.0,29.06,North,0,0.0,0.0,98,0.08,,,1.65,,2013-05-05 02:42:00,
2013-05-04 22:52:00,52.0,51.0,29.06,North,0,0.0,0.0,98,0.08,,,1.69,,2013-05-05 02:52:00,
2013-05-04 23:01:00,52.0,51.0,29.06,North,0,0.0,0.0,98,0.08,,,1.69,,2013-05-05 03:01:00,
2013-05-04 23:11:00,52.0,51.0,29.06,North,0,0.0,0.0,98,0.08,,,1.69,,2013-05-05 03:11:00,
2013-05-04 23:22:00,52.0,51.0,29.06,North,0,0.0,0.0,98,0.08,,,1.69,,2013-05-05 03:22:00,
2013-05-04 23:33:00,52.0,51.0,29.06,North,0,0.0,0.0,98,0.12,,,1.77,,2013-05-05 03:33:00,
2013-05-04 23:42:00,52.0,51.0,29.06,North,0,0.0,0.0,98,0.12,,,1.77,,2013-05-05 03:42:00,
2013-05-04 23:53:00,52.0,51.0,29.06,North,0,0.0,0.0,98,0.12,,,1.81,,2013-05-05 03:53:00,